User: anonymous   Login
Location: Brunsen
(51.8651°N, 9.8610°E)
Time: 11:21:41
(UTC+00:00)
Language:

Cosmos 1408 - Orbit

View from above orbital plane
View from above orbital plane
View from above satellite
View from above satellite

Ground track
Ground track

The orbit data is extracted from the following two-line orbital elements,

1 13552U 82092A   24206.12772757  .00076611  00000-0  61199-3 0  9999
2 13552  82.5522 202.9649 0013467 176.5326 183.6033 15.70723972294490
Epoch (UTC): 24 July 2024 03:03:55
Eccentricity: 0.0013467
inclination: 82.5522°
perigee height: 348 km
apogee height: 366 km
right ascension of ascending node: 202.9649°
argument of perigee: 176.5326°
revolutions per day: 15.70723972
mean anomaly at epoch: 183.6033°
orbit number at epoch: 29449

The dashed part of the orbit path shows where the satellite is in the earth's shadow,  

DLR